Погода Нарьян-Мар

Погода Нарьян-Мар : погода сейчас, прогноз погоды и архив. Всё, что Вы хотите узнать о погоде Нарьян-Мар!

Хотите узнать прогноз погоды Нарьян-Мар? Тогда Вам сюда: Погода Нарьян-Мар

Поиск расширенной информации на нашем сайте:

Другие новости

Новости СМИ2

Главная страница сайта

Новости сайта

03.07.2017

Напоминаем, что на нашем специализированном сайте Метеоцентр.Азия вы можете получить высокодетализированные автоматические прогнозы погоды по пунктам России, СНГ и мира в авиационном формате (включающие направление и скорость ветра, видимость, явления погоды, количество и форму облачности, нижнюю и верхнюю границу облачности).


Погода Нарьян-Мар - сегодня

Время (UTC), дата Ветер
(°,м/с) 
Видим.   Явления Облачность Т
(°С)
Тd
(°С)
f(%) Тe
(°С)
Pmin
(гПа)
dP
(гПа)
Po
(мм)
O2
(г/м3)
Тmin Tmax R s Состояние
почвы
09 18.07.17 190 (Ю) 5-10  20000 м    6/1 600 м средняя, верхняя 
[Cu hum|Ac trans|Ci fib]
+27.6 +12.5 39 +32  1010.6  -0.5  757  275           
12 18.07.17 160 (Ю) 4{10}  20000 м    8/3 600 м средняя, верхняя 
[Cu hum|Ac trans|Ci fib]
+27.8 +14.8 45 +36  1009.8  -0.8  756  274           
15 18.07.17 170 (Ю) 4{10}  4000 м  гроза, ливневой дождь  10/10 360 м кучево-дожд. 
[Cb cap]
+19.7 +16.7 83 +31  1011.6  1.7  758  281    +28.6  0.8     
18 18.07.17 110 (В) 20000 м  {гроза, ливн. осадки}  8/4 600 м кучево-дожд., средняя, верхняя 
[Cb calv|Ac trans|Ci fib]
+17.7 +16.4 92 +30  1010.6  -1  757  283           
21 18.07.17 170 (Ю) 20000 м    8/0 средняя, верхняя 
[Ac trans|Ci fib]
+17 +15.3 90 +27  1010.5  0.1  757  284           
00 19.07.17 190 (Ю) 20000 м    8/1 1000 м средняя, верхняя 
[Sc|Ac trans|Ci fib]
+16.8 +15 89 +26  1011  0.5  757  284           
03 19.07.17 140 (ЮВ) 20000 м    8/0 средняя, верхняя 
[Ac trans|Ci fib]
+20.6 +16.3 76 +31  1010.2  -0.8  757  280  +16.3      влажная 
06 19.07.17 140 (ЮВ) 20000 м    8/1 600 м средняя, верхняя 
[Cu hum|Ac trans|Ci fib]
+24.7 +15 55 +33  1009.3  -0.9  756  276           
09 19.07.17 160 (Ю) 5{10}  20000 м    3/3 600 м 
[Cu hum]
+28 +13.9 42 +35  1008.3  -1  755  273           
12 19.07.17 160 (Ю) 20000 м    6/6 600 м кучево-дожд. 
[Cb calv]
+27.7 +14 43 +35  1007.3  -1  755  273           
15 19.07.17 100 (В) 1{17}  10 км  гроза, ливневой дождь  9/8 540 м кучево-дожд., средняя 
[Cb cap|Ac trans]
+17.9 +16.3 90 +30  1008.8  -1.4  756  282    +29     
18 19.07.17 160 (Ю) 20000 м  {гроза, ливн. осадки}  8/4 600 м кучево-дожд., средняя 
[Cb calv|Ac trans]
+17.8 +16.7 93 +31  1009.5  0.8  756  282           
21 19.07.17 180 (Ю) 20000 м    8/6 1350 м средняя 
[Sc|Ac trans]
+18.1 +16.9 93 +31  1009.8  0.3  756  282           
00 20.07.17 240 (ЮЗ) 4000 м  дымка  10/10 180 м 
[St]
+17.1 +16.1 94 +28  1010.6  0.8  757  284           
03 20.07.17 290 (З) 20000 м    9/6 300 м средняя 
[St|Ac trans]
+16.7 +15 90 +26  1011.3  0.7  758  285  +16.5    0.1    влажная 
06 20.07.17 тихо ()   20000 м    9/9 450 м 
[Sc diur, vesp]
+19 +15.5 80 +28  1011.9  0.5  758  282           
09 20.07.17 020 (С) 20000 м    8/6 720 м верхняя 
[Cu med, cong|Ci ing]
+22 +15.1 65 +31  1011.6  -0.2  758  279           
12 20.07.17 060 (СВ) 20000 м  {ливн. осадки}  8/3 600 м кучево-дожд., средняя, верхняя 
[Cb cap|Ac trans|Ci ing]
+22.2 +15.9 67 +32  1011  -0.6  757  279           
15 20.07.17 тихо ()   20000 м    9/8 600 м кучево-дожд., средняя 
[Cb calv|Ac trans]
+21 +15.8 72 +31  1011  -0.1  757  280    +22.3  0.0     
18 20.07.17 210 (ЮЗ) 20000 м    8/3 600 м средняя, верхняя 
[Cu med, cong|Ac trans|Ci fib]
+18.2 +16.7 91 +30  1011.6  0.6  758  283           
21 20.07.17 200 (Ю) 4000 м  дымка  8/0 средняя 
[Ac trans]
+15 +14.2 95 +23  1012.5  0.9  758  287           
00 21.07.17 250 (З) 10 км  местами туман поземный  6/0 средняя 
[Ac lent]
+14.8 +14 95 +23  1013.3  0.8  759  287           
03 21.07.17 260 (З) 0050 м  туман  ?/?  
+16.1 +15.4 96 +26  1014.4  1.1  760  286  +14.2        влажная 
06 21.07.17 310 (СЗ) 20000 м  {туман}  9/9 240 м 
[St]
+18.6 +16.1 85 +30  1015.3  761  283           
09 21.07.17 300 (СЗ) 20000 м    6/4 600 м верхняя 
[Cu Sc|Ci fib]
+22.2 +15.4 65 +31  1015.4  761  280           
Время (UTC), дата Ветер
(°,м/с) 
Видим.   Явления Облачность Т
(°С)
Тd
(°С)
f(%) Тe
(°С)
Pmin
(гПа)
dP
(гПа)
Po
(мм)
O2
(г/м3)
Тmin Tmax R s Состояние
почвы

Для получения пояснительной информации подведите курсор к названию столбца.

ПОГОДА Нарьян-Мар - архив

Всё, что Вы хотите узнать о погоде Нарьян-Мар - удобно и подробно!

Выберите нужную дату (начиная с 1 января 2015* года) и нажмите кнопку "Найти".
Будут отображены архивные сводки погоды по пункту Нарьян-Мар, начиная с указанной даты.


Отображать данные в формате CSV (для использования в таблицах Excel)


Внимание! Наш архив погоды предназначен исключительно для личного некоммерческого использования в познавательных целях. Если Вам необходимы официальные справки о состоянии погоды (для производственных, юридических, коммерческих и т.п. целей), обращайтесь в органы Росгидромета.

*Примечание: данная дата относится к архиву по метеостанциям СССР (Россия, СНГ, Балтия).
Архив по метеостанциям Зарубежной Европы и Азии (кроме Китая) хранится 10 дней, по другим регионам земного шара (Китай, Африка, Америка, Австралия, Океания) - 1 день.

Нарьян-Мар - район местоположения метеостанции


Название, широта, долгота, высота метеостанции:
Нарьян-Мар 67.6°ш. 53°д. 12 м над ур. моря [Российская Федерация]

Дополнительная информация

В oтличие oт бoльшинства пoгoдных сайтoв мы публикуем пoдрoбную метеoинфoрмацию в детальнoм прoфессиoнальнoм фoрмате.

Характеристики температуры и влажнoсти вoздуха измеряются на высoте 2 м в тени вдали oт зданий и деревьев.
Скoрoсть ветра измеряется на высoте 10 м (на урoвне рoста челoвека скoрoсть ветра ниже в 1.5-2 раза). Если метеoстанция нахoдится в гoрoде или в лесу, тo скoрoсть ветра занижена на 2-4 м/с пo сравнению с oткрытым местoм. Скoрoсть ветра над акватoриями крупных рек и oзёр, а также на вершинах хoлмoв на 2-5 м/с выше, чем в oбычных услoвиях.
Атмoсфернoе давление в разных тoчках местнoсти мoжет значительнo oтличаться oт давления на метеoстанции, в зависимoсти oт услoвий рельефа (при пoдъёме на 10 м давление пoнижается примернo на 1 мм рт.ст.).